When you browse on this site, cookies collect data to enhance your experience and personalize the content and advertising you see.
Visit our Privacy Policy to learn more. By continuing to use the site, you agree to this use of cookies and data.
  • In Spain
  • List of Countries
  • For 7 days
  • Water Temperature
  • Satellite Maps
  • Weather Map
  • Weather Widgets
  • user-avatar
    Login

    Hourly Weather Ischgl

    Today, 18 April, Thursday

    Time Temperature Precipitation Wind Pressure Humidity
    00:00 -6°C° 0 mm 2 mps 573 mmHg 85%
    01:00 -6°C° 0 mm 3 mps 573 mmHg 84%
    02:00 -7°C° 0 mm 3 mps 573 mmHg 86%
    03:00 -7°C° 0 mm 3 mps 573 mmHg 88%
    04:00 -6°C° 0 mm 2 mps 573 mmHg 90%
    05:00 -5°C° 0 mm 2 mps 573 mmHg 90%
    06:00 -4°C° 0 mm 2 mps 574 mmHg 90%
    07:00 -3°C° 0 mm 2 mps 575 mmHg 89%
    08:00 -2°C° 0 mm 2 mps 575 mmHg 91%
    09:00 -1°C° 0 mm 2 mps 576 mmHg 93%
    10:00 +1°C° 0 mm 2 mps 576 mmHg 95%
    11:00 +2°C° 0 mm 2 mps 576 mmHg 93%
    12:00 +2°C° 0 mm 2 mps 576 mmHg 90%
    13:00 +3°C° 0 mm 2 mps 577 mmHg 88%
    14:00 +3°C° 0.2 mm 2 mps 577 mmHg 87%
    15:00 +3°C° 0.2 mm 2 mps 577 mmHg 86%
    16:00 +3°C° 0.2 mm 2 mps 577 mmHg 85%
    17:00 +2°C° 0.1 mm 2 mps 576 mmHg 87%
    18:00 -1°C° 0.1 mm 2 mps 576 mmHg 89%
    19:00 -2°C° 0.1 mm 2 mps 575 mmHg 91%
    20:00 -3°C° 0 mm 2 mps 575 mmHg 91%
    21:00 -3°C° 0 mm 2 mps 576 mmHg 91%
    22:00 -4°C° 0 mm 2 mps 576 mmHg 91%
    23:00 -4°C° 0 mm 2 mps 576 mmHg 91%

    Tomorrow, 19 April, Friday

    Time Temperature Precipitation Wind Pressure Humidity
    00:00 -5°C° 0 mm 3 mps 576 mmHg 91%
    01:00 -6°C° 0 mm 3 mps 576 mmHg 91%
    02:00 -6°C° 0 mm 3 mps 576 mmHg 92%
    03:00 -6°C° 0 mm 3 mps 576 mmHg 92%
    04:00 -6°C° 0 mm 3 mps 576 mmHg 92%
    05:00 -5°C° 0 mm 2 mps 577 mmHg 90%
    06:00 -4°C° 0 mm 2 mps 577 mmHg 89%
    07:00 -3°C° 0 mm 2 mps 578 mmHg 88%
    08:00 -2°C° 0 mm 2 mps 578 mmHg 84%
    09:00 +1°C° 0 mm 2 mps 579 mmHg 81%
    10:00 +2°C° 0 mm 2 mps 580 mmHg 78%
    11:00 +3°C° 0 mm 2 mps 580 mmHg 75%
    12:00 +4°C° 0 mm 2 mps 580 mmHg 71%
    13:00 +5°C° 0 mm 2 mps 581 mmHg 68%
    14:00 +5°C° 0.1 mm 2 mps 580 mmHg 67%
    15:00 +5°C° 0.1 mm 2 mps 580 mmHg 66%
    16:00 +5°C° 0.1 mm 2 mps 580 mmHg 65%
    17:00 +4°C° 0 mm 1 mps 579 mmHg 71%
    18:00 +2°C° 0 mm 1 mps 578 mmHg 77%
    19:00 0°C° 0 mm 1 mps 577 mmHg 83%
    20:00 -1°C° 0 mm 1 mps 577 mmHg 83%
    21:00 -3°C° 0 mm 2 mps 577 mmHg 83%
    22:00 -4°C° 0 mm 2 mps 577 mmHg 84%
    23:00 -4°C° 0 mm 2 mps 577 mmHg 83%

    Day after tomorrow, 20 April, Saturday

    Time Temperature Precipitation Wind Pressure Humidity
    00:00 -4°C° 0 mm 2 mps 577 mmHg 82%
    01:00 -5°C° 0 mm 2 mps 577 mmHg 81%
    02:00 -5°C° 0 mm 2 mps 577 mmHg 78%
    03:00 -5°C° 0 mm 2 mps 577 mmHg 75%
    04:00 -5°C° 0 mm 2 mps 577 mmHg 71%
    05:00 -4°C° 0 mm 2 mps 577 mmHg 66%
    06:00 -3°C° 0 mm 2 mps 578 mmHg 61%
    07:00 -2°C° 0 mm 2 mps 578 mmHg 56%
    08:00 +1°C° 0 mm 2 mps 579 mmHg 51%
    09:00 +4°C° 0 mm 1 mps 579 mmHg 46%
    10:00 +6°C° 0 mm 1 mps 580 mmHg 41%
    11:00 +6°C° 0 mm 1 mps 580 mmHg 40%
    12:00 +6°C° 0 mm 2 mps 580 mmHg 39%
    13:00 +7°C° 0 mm 2 mps 580 mmHg 38%
    14:00 +7°C° 0 mm 2 mps 580 mmHg 39%
    15:00 +7°C° 0 mm 2 mps 580 mmHg 40%
    16:00 +7°C° 0 mm 2 mps 580 mmHg 41%
    17:00 +5°C° 0 mm 1 mps 578 mmHg 49%
    18:00 +3°C° 0 mm 1 mps 577 mmHg 57%
    19:00 +1°C° 0 mm 1 mps 576 mmHg 65%
    20:00 0°C° 0 mm 1 mps 576 mmHg 65%
    21:00 -2°C° 0 mm 2 mps 576 mmHg 64%
    22:00 -3°C° 0 mm 2 mps 576 mmHg 64%
    23:00 -3°C° 0 mm 2 mps 575 mmHg 67%

    21 April, Sunday

    Time Temperature Precipitation Wind Pressure Humidity
    00:00 -4°C° 0 mm 2 mps 575 mmHg 69%
    01:00 -4°C° 0 mm 2 mps 575 mmHg 71%
    02:00 -4°C° 0 mm 2 mps 575 mmHg 73%
    03:00 -4°C° 0 mm 2 mps 574 mmHg 74%
    04:00 -4°C° 0 mm 2 mps 574 mmHg 75%
    05:00 -3°C° 0 mm 2 mps 575 mmHg 69%
    06:00 -2°C° 0 mm 2 mps 575 mmHg 62%
    07:00 +1°C° 0 mm 1 mps 575 mmHg 56%
    08:00 +3°C° 0 mm 1 mps 576 mmHg 49%
    09:00 +5°C° 0 mm 1 mps 577 mmHg 42%
    10:00 +7°C° 0 mm 1 mps 577 mmHg 36%
    11:00 +8°C° 0 mm 1 mps 577 mmHg 35%
    12:00 +8°C° 0 mm 1 mps 577 mmHg 34%
    13:00 +9°C° 0 mm 1 mps 577 mmHg 33%
    14:00 +9°C° 0 mm 1 mps 577 mmHg 34%
    15:00 +9°C° 0 mm 1 mps 576 mmHg 35%
    16:00 +7°C° 0 mm 2 mps 576 mmHg 36%
    17:00 +5°C° 0 mm 2 mps 575 mmHg 45%
    18:00 +3°C° 0 mm 2 mps 574 mmHg 54%
    19:00 +2°C° 0 mm 1 mps 573 mmHg 63%
    20:00 -1°C° 0 mm 2 mps 572 mmHg 67%
    21:00 -1°C° 0 mm 2 mps 572 mmHg 70%
    22:00 -2°C° 0 mm 2 mps 572 mmHg 74%
    23:00 -2°C° 0 mm 3 mps 572 mmHg 78%

    22 April, Monday

    Time Temperature Precipitation Wind Pressure Humidity
    00:00 -4°C° 0 mm 3 mps 571 mmHg 83%
    01:00 -4°C° 0 mm 3 mps 571 mmHg 87%
    02:00 -4°C° 0 mm 3 mps 571 mmHg 87%
    03:00 -4°C° 0 mm 3 mps 571 mmHg 88%
    04:00 -4°C° 0 mm 3 mps 571 mmHg 88%
    05:00 -2°C° 0 mm 2 mps 571 mmHg 83%
    06:00 -1°C° 0 mm 2 mps 571 mmHg 78%
    07:00 -1°C° 0 mm 2 mps 571 mmHg 74%
    08:00 +2°C° 0 mm 2 mps 572 mmHg 63%
    09:00 +3°C° 0 mm 2 mps 572 mmHg 52%
    10:00 +5°C° 0 mm 2 mps 573 mmHg 41%
    11:00 +6°C° 0 mm 2 mps 573 mmHg 40%
    12:00 +7°C° 0 mm 2 mps 573 mmHg 40%
    13:00 +7°C° 0 mm 2 mps 573 mmHg 39%
    14:00 +7°C° 0 mm 2 mps 572 mmHg 42%
    15:00 +6°C° 0 mm 2 mps 571 mmHg 45%
    16:00 +5°C° 0 mm 3 mps 571 mmHg 47%
    17:00 +5°C° 0 mm 2 mps 570 mmHg 54%
    18:00 +3°C° 0 mm 2 mps 569 mmHg 61%
    19:00 +2°C° 0 mm 2 mps 568 mmHg 68%
    20:00 +1°C° 0 mm 2 mps 568 mmHg 73%
    21:00 -1°C° 0 mm 2 mps 568 mmHg 78%
    22:00 -2°C° 0 mm 3 mps 567 mmHg 83%
    23:00 -2°C° 0 mm 2 mps 567 mmHg 84%

    23 April, Tuesday

    Time Temperature Precipitation Wind Pressure Humidity
    00:00 -2°C° 0 mm 2 mps 567 mmHg 85%
    01:00 -2°C° 0 mm 2 mps 566 mmHg 86%
    02:00 -3°C° 0 mm 2 mps 566 mmHg 85%
    03:00 -3°C° 0 mm 2 mps 566 mmHg 84%
    04:00 -3°C° 0 mm 2 mps 566 mmHg 83%
    05:00 -2°C° 0 mm 2 mps 566 mmHg 78%
    06:00 -1°C° 0 mm 2 mps 566 mmHg 74%
    07:00 +1°C° 0 mm 2 mps 566 mmHg 69%
    08:00 +2°C° 0 mm 2 mps 567 mmHg 64%
    09:00 +5°C° 0 mm 1 mps 567 mmHg 58%
    10:00 +6°C° 0 mm 1 mps 568 mmHg 53%
    11:00 +7°C° 0.1 mm 1 mps 568 mmHg 53%
    12:00 +7°C° 0.1 mm 1 mps 568 mmHg 54%
    13:00 +8°C° 0.1 mm 1 mps 569 mmHg 54%
    14:00 +7°C° 0.6 mm 1 mps 568 mmHg 60%
    15:00 +6°C° 0.6 mm 1 mps 568 mmHg 65%
    16:00 +5°C° 0.6 mm 1 mps 568 mmHg 71%
    17:00 +5°C° 0.4 mm 1 mps 568 mmHg 76%
    18:00 +4°C° 0.4 mm 1 mps 568 mmHg 80%
    19:00 +3°C° 0.4 mm 1 mps 567 mmHg 85%
    20:00 +3°C° 0.2 mm 1 mps 568 mmHg 86%
    21:00 +2°C° 0.2 mm 1 mps 568 mmHg 86%
    22:00 +2°C° 0.2 mm 1 mps 568 mmHg 86%
    23:00 +2°C° 0.1 mm 1 mps 568 mmHg 86%
    Show more